Date,TemperatureHighF,TemperatureAvgF,TemperatureLowF,DewpointHighF,DewpointAvgF,DewpointLowF,HumidityHigh,HumidityAvg,HumidityLow,PressureMaxIn,PressureMinIn,WindSpeedMaxMPH,WindSpeedAvgMPH,GustSpeedMaxMPH,PrecipitationSumIn
2013-1-1,40,37,34,39,35,24,99,93,59,30.25,30.11,11,3,20,0.26
2013-1-2,35,31,28,34,31,28,99,98,98,30.25,30.07,11,2,11,0.03
2013-1-3,30,27,20,29,27,20,99,98,98,30.32,30.20,8,2,11,0.01
2013-1-4,32,21,16,28,20,16,100,96,80,30.39,30.28,11,5,15,0.00
2013-1-5,45,33,17,30,22,15,99,67,34,30.47,30.32,13,2,17,0.00
2013-1-6,43,31,27,38,30,27,100,97,81,30.33,30.19,8,3,16,0.01
2013-1-7,45,31,20,31,26,20,100,81,44,30.51,30.29,9,4,15,0.00
2013-1-8,47,36,26,39,29,20,98,77,49,30.55,30.45,11,4,14,0.00
2013-1-9,52,45,39,50,44,38,99,96,87,30.68,30.54,9,3,14,0.01
2013-1-10,52,47,40,51,46,38,97,96,91,30.73,30.54,20,4,27,0.00
2013-1-11,50,45,38,48,44,38,99,95,90,30.54,30.35,23,6,30,0.20
2013-1-12,62,54,49,57,51,46,96,89,75,30.45,30.36,11,4,17,0.00
2013-1-13,60,52,49,55,51,48,97,94,78,30.37,30.29,12,6,21,0.00
2013-1-14,53,51,41,51,48,39,96,92,88,30.39,30.30,10,2,18,2.07
2013-1-15,48,44,41,45,42,39,92,90,89,30.37,30.20,11,3,12,1.93
2013-1-16,54,46,43,49,44,40,96,90,70,30.22,30.14,9,3,14,0.31
2013-1-17,44,38,29,42,36,28,96,93,90,30.19,29.97,7,2,16,1.45
2013-1-18,32,28,19,31,27,19,99,96,90,30.57,30.46,7,2,9,0.38
2013-1-19,45,32,23,33,27,21,96,81,53,30.54,30.27,11,4,16,0.04
2013-1-20,42,33,28,36,29,23,98,86,72,30.27,30.19,10,5,14,0.00
2013-1-21,40,29,16,32,24,12,97,82,70,30.20,29.96,19,5,36,0.00
2013-1-22,16,16,16,12,12,12,85,85,84,29.96,29.96,11,9,21,0.00
2013-1-24,30,21,11,29,17,7,97,85,67,30.39,29.99,18,5,30,0.00
2013-1-25,32,18,7,32,18,5,100,95,84,30.39,30.07,9,1,13,0.00
2013-1-26,29,24,21,28,24,21,99,98,94,30.41,30.12,0,0,0,0.12
2013-1-27,34,30,23,31,24,14,97,80,48,30.54,30.41,10,2,12,0.21
2013-1-28,56,43,29,47,40,28,99,90,72,30.53,30.41,13,4,17,0.02
2013-1-29,61,51,43,51,47,41,97,86,57,30.44,30.25,9,4,19,0.03
2013-1-30,53,49,35,50,46,33,95,90,84,30.25,29.63,19,8,36,3.74
2013-1-31,35,23,18,33,22,18,99,97,94,29.99,29.63,14,7,24,0.07
2013-2-1,28,14,5,27,13,5,100,96,88,30.27,29.90,17,6,34,0.08
2013-2-2,29,21,7,25,17,5,99,86,62,30.29,30.04,8,2,19,0.01
2013-2-3,25,22,17,25,22,16,99,99,96,30.04,29.92,15,4,29,0.00
2013-2-4,40,26,13,31,23,13,99,86,67,30.16,30.01,10,4,13,0.30
2013-2-5,42,34,29,36,30,25,98,88,73,30.11,30.01,12,3,17,0.05
2013-2-6,47,35,26,35,28,20,99,77,50,30.39,30.11,12,4,20,0.00
2013-2-7,37,32,30,35,30,23,99,89,65,30.38,30.11,16,8,21,0.00
2013-2-8,36,32,22,35,31,22,98,97,93,30.13,30.01,14,5,23,0.48
2013-2-9,47,30,17,27,21,17,99,74,32,30.46,30.12,11,4,21,0.00
2013-2-10,38,33,30,35,26,20,100,76,58,30.48,30.29,13,5,20,0.17
2013-2-11,48,40,34,45,38,29,98,91,82,30.29,30.16,11,4,18,0.25
2013-2-12,46,34,26,33,26,17,100,76,42,30.21,30.04,10,3,16,0.00
2013-2-13,40,31,26,39,30,25,100,98,95,30.05,29.75,10,3,16,0.27
2013-2-14,45,30,19,33,26,19,99,89,52,30.17,29.91,9,3,14,0.03
2013-2-15,48,32,25,36,30,24,99,92,60,30.20,30.09,12,2,17,0.01
2013-2-16,24,19,11,24,19,10,99,99,96,30.09,29.86,9,2,17,0.08
2013-2-17,22,13,6,17,11,5,99,92,77,30.22,29.91,18,6,33,0.10
2013-2-18,41,27,13,33,22,10,94,82,65,30.40,30.22,19,4,22,0.03
2013-2-19,40,30,21,36,27,15,100,88,76,30.25,29.96,21,6,33,0.05
2013-2-20,37,22,15,23,16,11,96,78,52,30.19,30.03,24,5,24,0.00
2013-2-21,53,35,19,30,17,6,99,51,26,30.35,30.16,15,4,17,0.03
2013-2-22,41,30,26,40,30,26,100,98,95,30.35,30.22,10,1,14,0.11
2013-2-23,48,43,39,46,41,38,96,94,89,30.22,30.03,11,2,15,0.25
2013-2-24,46,33,26,36,30,24,98,89,61,30.18,29.99,12,4,19,0.01
2013-2-25,39,30,23,31,24,14,98,80,44,30.22,30.12,15,5,24,0.02
2013-2-26,34,30,23,33,30,23,100,98,96,30.12,29.68,24,3,30,0.39
2013-2-27,45,32,26,38,30,25,100,92,73,29.88,29.71,13,2,20,0.02
2013-2-28,27,22,20,27,22,20,99,99,97,29.89,29.73,18,6,23,0.00
2013-3-1,26,23,20,26,23,20,99,99,98,29.95,29.86,7,2,13,0.03
2013-3-2,26,21,14,26,21,14,99,99,98,29.93,29.86,12,1,12,0.04
2013-3-3,19,14,10,18,14,10,99,99,97,29.96,29.88,9,2,22,0.04
2013-3-4,40,24,11,28,19,11,100,82,50,30.17,29.94,9,3,17,0.24
2013-3-5,39,35,27,38,33,23,99,92,65,30.17,29.70,10,2,14,0.51
2013-3-6,26,18,15,26,18,15,99,99,98,30.12,29.59,24,7,27,3.94
2013-3-7,25,20,18,25,20,18,99,99,99,30.32,30.12,6,2,10,1.15
2013-3-8,33,23,16,32,23,16,99,98,85,30.42,30.26,7,1,9,0.00
2013-3-9,53,40,29,35,30,25,85,67,51,30.46,30.38,8,4,11,0.00
2013-3-10,50,42,35,38,34,29,81,71,60,30.45,30.35,24,7,28,0.00
2013-3-11,41,40,40,36,35,35,82,81,80,30.35,30.34,13,11,28,0.00
2013-3-12,44,44,44,42,42,42,92,92,92,30.03,30.03,9,8,11,0.00
2013-3-13,28,27,26,28,27,26,98,98,98,30.13,30.12,2,2,6,0.03
2013-3-14,35,22,12,26,19,12,99,87,64,30.29,30.12,12,4,21,0.03
2013-3-15,57,39,22,42,32,19,99,78,46,30.24,30.14,14,6,23,0.00
2013-3-16,65,53,45,50,46,42,93,76,54,30.16,30.03,15,6,25,0.00
2013-3-17,59,48,35,50,45,34,98,90,65,30.23,30.14,17,6,18,0.00
2013-3-18,40,35,30,38,33,29,97,96,94,30.22,30.00,11,4,17,0.44
2013-3-19,45,36,26,39,31,18,96,83,59,30.19,30.01,12,3,19,0.05
2013-3-20,44,30,19,26,20,14,99,67,43,30.18,29.93,13,3,18,0.00
2013-3-21,25,16,9,22,14,8,99,92,79,29.96,29.77,13,6,21,0.10
2013-3-22,40,24,11,28,18,10,97,80,51,30.11,29.92,6,2,12,0.00
2013-3-23,44,35,29,42,34,29,99,96,89,30.16,30.04,12,2,19,0.00
2013-3-24,38,32,28,37,31,27,99,97,94,30.07,29.62,17,8,27,0.78
2013-3-25,28,22,18,27,22,18,99,98,97,29.85,29.58,10,2,21,0.00
2013-3-26,23,21,18,23,21,18,99,99,99,30.18,29.85,5,2,17,0.00
2013-3-27,27,21,17,27,21,17,99,99,98,30.30,30.16,8,2,12,0.14
2013-3-28,32,23,15,31,22,15,99,97,92,30.41,30.25,10,3,13,0.48
2013-3-29,43,30,21,32,26,20,99,87,57,30.45,30.37,6,1,10,0.04
2013-3-30,49,39,31,39,34,29,99,85,67,30.38,30.26,8,2,11,0.00
2013-3-31,49,42,37,46,40,-100,99,96,89,30.26,30.04,10,3,21,0.60
2013-4-1,49,40,33,45,38,32,97,93,83,30.13,30.03,12,4,23,0.01
2013-4-2,46,34,25,33,28,24,98,79,53,30.26,30.12,11,4,15,0.00
2013-4-3,51,35,21,31,23,17,84,64,44,30.42,30.25,12,2,14,0.00
2013-4-4,35,30,25,33,25,17,100,84,58,30.40,30.05,25,10,29,0.01
2013-4-5,47,36,30,41,34,29,98,94,79,30.23,30.01,7,3,13,0.17
2013-4-6,54,44,33,42,36,30,95,74,56,30.40,30.23,14,5,17,0.00
2013-4-7,58,47,36,46,40,34,93,77,59,30.41,30.34,10,5,15,0.00
2013-4-8,64,53,44,52,47,41,93,80,61,30.40,30.33,13,4,14,0.00
2013-4-9,71,58,48,55,51,46,96,77,51,30.50,30.39,9,3,14,0.00
2013-4-10,74,62,51,57,53,48,93,74,50,30.45,30.30,9,4,15,0.00
2013-4-11,65,58,53,56,53,50,97,84,67,30.30,30.03,11,6,19,0.45
2013-4-12,62,52,39,55,48,37,95,88,61,30.09,29.92,17,5,25,1.64
2013-4-13,61,46,35,43,38,34,97,76,47,30.29,30.05,11,4,16,0.00
2013-4-14,60,50,40,45,39,33,99,67,50,30.35,30.23,15,5,24,0.01
2013-4-15,50,46,43,48,45,42,99,95,92,30.46,30.21,21,7,27,0.13
2013-4-16,65,55,48,59,51,45,96,87,70,30.57,30.46,10,4,14,0.01
2013-4-17,61,55,51,57,53,50,97,94,80,30.58,30.47,8,3,12,0.32
2013-4-18,60,55,53,55,53,51,97,93,81,30.48,30.28,19,8,26,0.00
2013-4-19,55,50,34,54,47,32,96,90,83,30.28,30.01,23,9,31,0.79
2013-4-20,49,36,25,40,32,24,97,86,64,30.47,30.04,8,4,21,0.00
2013-4-21,48,39,33,37,32,27,91,76,61,30.61,30.46,19,8,25,0.00
2013-4-22,53,40,31,40,35,29,99,83,62,30.58,30.46,20,8,22,0.00
2013-4-23,60,47,33,47,40,28,96,78,62,30.47,30.39,15,5,18,0.00
2013-4-24,63,51,42,53,48,41,97,88,68,30.40,30.29,11,4,16,0.04
2013-4-25,58,43,30,44,34,28,98,76,32,30.55,30.30,7,2,18,0.01
2013-4-26,56,45,34,41,35,28,86,69,51,30.63,30.52,9,3,14,0.00
2013-4-27,49,45,43,46,42,39,98,91,77,30.62,30.47,9,3,15,0.17
2013-4-28,47,43,39,45,40,-100,97,95,93,30.47,30.28,17,5,21,1.10
2013-4-29,59,50,45,54,48,43,97,91,79,30.31,30.24,7,3,10,0.05
2013-4-30,60,52,49,55,50,47,97,92,81,30.47,30.28,12,5,16,0.10
2013-5-1,51,48,45,49,46,43,97,94,87,30.56,30.45,18,8,30,0.03
2013-5-2,50,46,44,46,43,41,95,89,85,30.56,30.48,21,12,30,0.16
2013-5-3,46,44,41,41,40,38,92,87,81,30.50,30.33,32,15,47,0.06
2013-5-4,42,38,33,39,36,32,97,92,87,30.33,30.18,28,17,47,0.07
2013-5-5,44,41,37,39,37,34,89,87,84,30.24,30.02,44,22,57,2.64
2013-5-6,50,44,40,44,40,38,92,84,76,30.14,29.97,42,11,56,2.50
2013-5-7,50,42,39,47,41,37,98,93,85,30.17,30.09,7,2,9,0.83
2013-5-8,55,48,43,53,46,41,97,92,81,30.31,30.14,8,2,11,0.07
2013-5-9,66,55,46,56,50,44,93,84,65,30.45,30.28,0,0,0,0.01
2013-5-10,67,56,51,58,51,-100,97,87,66,30.45,30.31,0,0,0,0.15
2013-5-11,61,54,49,57,52,47,97,95,88,30.32,30.16,0,0,0,0.12
2013-5-12,54,44,35,47,40,-100,97,88,66,30.28,30.11,0,0,7,0.00
2013-5-13,53,40,30,38,33,29,97,78,55,30.39,30.23,0,0,0,0.00
2013-5-14,65,49,33,48,40,30,91,73,50,30.46,30.37,0,0,0,0.00
2013-5-15,77,62,51,60,52,47,95,72,47,30.44,30.35,0,0,0,0.00
2013-5-16,71,55,52,56,29,-100,86,75,58,30.41,30.31,0,0,0,0.00
2013-5-17,68,59,53,60,50,-100,96,86,70,30.47,30.37,0,0,0,0.33
2013-5-18,81,55,54,78,53,51,100,91,86,30.47,27.57,0,0,9,0.67
2013-5-19,63,56,53,53,51,48,89,82,68,0.00,40.00,2,0,8,0.20
2013-5-20,72,61,54,65,55,48,97,82,70,30.15,30.10,0,0,0,0.11
2013-5-21,74,64,55,65,59,53,97,85,65,30.11,30.03,0,0,0,0.26
2013-5-22,71,60,54,63,57,53,97,91,73,30.07,29.96,0,0,0,0.60
2013-5-23,68,58,51,61,55,50,98,90,73,29.99,29.88,0,0,0,0.09
2013-5-24,54,47,38,50,44,37,97,90,72,30.13,29.86,0,0,0,0.13
2013-5-25,64,47,35,48,41,34,99,80,48,30.22,30.13,0,0,0,0.00
2013-5-26,64,52,40,52,45,37,98,77,59,30.22,30.14,0,0,0,0.04
2013-5-27,65,57,49,58,52,46,95,85,75,30.24,30.18,0,0,0,0.00
2013-5-28,70,60,53,61,57,52,97,88,68,30.26,30.16,0,0,0,0.00
2013-5-29,71,62,53,63,57,52,96,86,65,30.28,30.20,0,0,0,0.00
2013-5-30,70,61,55,63,58,54,97,89,75,30.31,30.22,0,0,0,0.00
2013-5-31,70,62,57,61,58,55,97,89,73,30.27,30.20,0,0,0,0.00
2013-6-1,72,63,58,63,59,56,96,88,66,30.20,30.09,0,0,0,0.00
2013-6-2,62,60,57,61,57,-100,97,95,90,30.11,29.96,0,0,0,0.31
2013-6-3,71,61,54,64,57,52,98,88,73,30.03,29.91,0,0,0,0.00
2013-6-4,63,57,54,60,56,53,97,95,88,30.14,30.00,0,0,0,0.00
2013-6-5,64,58,54,62,56,52,97,92,77,30.14,30.04,0,0,0,0.16
2013-6-6,65,60,57,63,55,52,96,85,75,30.05,29.85,0,0,0,0.33
2013-6-7,65,59,56,62,55,51,96,87,77,29.89,29.73,0,0,0,0.67
2013-6-8,70,61,52,64,58,50,97,89,76,30.15,29.87,0,0,0,0.24
2013-6-9,69,61,55,64,58,53,97,92,77,30.20,30.11,0,0,0,0.72
2013-6-10,68,61,56,64,57,53,97,87,76,30.11,29.94,0,0,0,0.95
2013-6-11,70,60,53,64,58,52,98,92,80,30.08,29.95,0,0,0,0.06
2013-6-12,78,67,56,71,64,55,96,91,78,30.11,30.04,0,0,0,0.00
2013-6-13,76,63,54,67,60,53,98,90,70,30.04,29.79,0,0,0,0.36
2013-6-14,65,55,50,58,53,49,98,91,76,30.09,29.84,0,0,0,0.00
2013-6-15,71,59,50,61,54,47,98,84,66,30.16,30.07,0,0,0,0.00
2013-6-16,71,62,54,65,60,53,97,92,80,30.17,30.11,0,0,0,0.00
2013-6-17,69,62,57,66,61,56,98,95,85,30.13,30.03,0,0,0,0.16
2013-6-18,64,60,55,63,58,54,97,95,87,30.04,29.88,0,0,0,0.33
2013-6-19,69,59,52,62,57,51,98,93,73,30.19,29.96,0,0,0,0.00
2013-6-20,66,60,56,63,58,54,97,94,86,30.28,30.16,0,0,0,0.00
2013-6-22,74,67,60,62,60,56,96,80,63,30.29,30.22,0,0,0,0.00
2013-6-23,71,63,57,64,60,56,97,90,72,30.29,30.20,0,0,0,0.00
2013-6-24,75,63,58,68,61,57,98,94,76,30.30,30.22,0,0,0,0.48
2013-6-25,76,65,58,69,62,57,97,91,69,30.24,30.12,0,0,0,0.00
2013-6-26,75,64,58,70,62,57,97,94,79,30.15,30.04,0,0,0,0.34
2013-6-27,69,63,57,68,62,56,97,96,94,30.05,29.86,0,0,0,0.21
2013-6-28,75,64,58,69,62,57,98,93,78,29.89,29.73,0,0,0,0.07
2013-6-29,72,63,56,64,58,54,97,86,64,29.80,29.70,0,0,0,0.01
2013-6-30,71,62,55,65,59,54,98,90,73,29.89,29.76,0,0,0,1.30
2013-7-1,67,60,56,65,58,55,97,95,86,30.02,29.86,0,0,0,1.90
2013-7-2,68,60,58,65,58,55,98,92,85,30.19,30.01,0,0,0,0.44
2013-7-3,63,60,55,57,56,51,90,86,80,30.26,30.17,0,0,0,2.49
2013-7-4,63,60,55,57,55,51,88,82,78,30.28,30.23,0,0,0,1.76
2013-7-5,69,63,59,66,60,54,98,90,73,30.31,30.27,0,0,0,1.05
2013-7-6,66,62,60,65,59,55,96,89,84,30.29,30.19,0,0,0,0.80
2013-7-7,70,63,60,68,59,55,98,87,73,30.24,30.17,0,0,0,2.39
2013-7-8,75,64,59,68,59,-100,98,87,74,30.28,30.21,0,0,0,0.00
2013-7-9,76,66,58,69,63,56,98,90,76,30.28,30.20,0,0,0,0.40
2013-7-10,76,64,61,73,60,-100,98,91,83,30.23,30.07,0,0,0,0.57
2013-7-11,69,64,61,68,61,58,97,92,85,30.07,29.98,0,0,0,0.09
2013-7-12,74,63,56,67,60,55,98,91,75,30.10,29.97,0,0,0,0.35
2013-7-13,63,59,56,62,57,53,97,93,85,30.19,30.05,0,0,0,0.14
2013-7-14,64,61,59,59,56,54,90,84,79,30.37,30.16,0,0,0,2.16
2013-7-15,72,63,59,67,59,53,98,85,76,30.44,30.36,0,0,0,0.07
2013-7-16,77,65,58,69,62,57,98,90,70,30.44,30.39,0,0,0,1.00
2013-7-17,78,66,60,72,64,59,98,92,78,30.42,30.32,0,0,0,1.90
2013-7-18,75,70,66,69,68,65,97,93,81,30.26,30.22,0,0,0,0.00
2013-7-19,77,66,62,71,65,60,98,94,81,30.25,30.14,0,0,0,0.99
2013-7-20,73,66,61,70,64,59,97,94,85,30.17,30.05,0,0,0,0.09
2013-7-21,74,65,60,70,63,58,98,94,81,30.11,30.04,0,0,0,0.04
2013-7-22,74,64,59,69,62,58,98,94,80,30.09,29.93,0,0,0,1.10
2013-7-23,73,64,60,68,61,57,98,92,80,29.97,29.88,0,0,0,0.03
2013-7-24,75,65,59,69,62,58,98,91,76,29.96,29.88,0,0,0,0.00
2013-7-25,74,63,56,66,60,55,98,91,70,30.11,29.93,0,0,0,0.00
2013-7-26,72,63,56,66,60,55,98,93,75,30.16,30.09,0,0,0,0.01
2013-7-27,70,62,57,66,60,55,98,95,85,30.12,29.99,0,0,0,1.41
2013-7-28,70,61,55,66,59,54,98,92,83,30.10,29.97,0,0,0,0.05
2013-7-29,73,59,51,63,56,50,98,90,70,30.27,30.07,0,0,0,0.00
2013-7-30,66,61,54,64,59,52,98,93,85,30.28,30.23,0,0,0,0.00
2013-7-31,62,59,56,61,58,55,98,97,93,30.26,30.05,0,0,0,0.20
2013-8-1,72,63,59,68,60,57,98,92,83,30.05,29.98,0,0,0,0.16
2013-8-2,72,63,54,67,60,53,98,91,71,30.14,30.02,0,0,0,0.01
2013-8-3,74,65,60,68,63,59,98,91,75,30.14,30.06,0,0,0,0.00
2013-8-4,72,64,56,66,60,55,98,90,71,30.12,30.02,0,0,0,0.00
2013-8-5,71,62,55,65,59,54,98,93,78,30.12,30.06,0,0,0,0.01
2013-8-6,70,63,57,67,61,56,98,95,82,30.12,30.03,0,0,0,0.25
2013-8-7,63,61,60,60,58,55,94,89,83,30.16,30.09,0,0,0,0.26
2013-8-8,70,64,59,68,60,54,97,88,75,30.16,30.10,0,0,0,0.02
2013-8-9,74,66,62,71,64,59,97,93,86,30.14,26.22,0,0,0,0.89
2013-8-10,63,63,63,62,62,62,96,96,96,30.02,30.02,0,0,0,0.70
2013-8-11,75,65,59,72,63,57,98,93,86,30.07,30.00,0,0,0,0.71
2013-8-12,76,66,61,72,64,60,98,93,83,30.02,29.92,0,0,0,1.22
2013-8-13,70,62,59,68,59,-100,98,93,86,29.92,29.76,0,0,0,0.08
2013-8-14,66,58,52,60,56,51,99,92,77,29.93,29.78,0,0,0,0.00
2013-8-15,58,47,48,56,35,-100,99,91,92,29.98,29.91,0,0,0,0.00
2013-8-16,64,53,48,59,48,-100,99,93,80,30.01,29.91,0,0,0,0.00
2013-8-17,59,54,47,58,52,46,99,96,84,30.02,29.96,0,0,0,0.08
2013-8-18,70,58,55,65,55,-100,98,90,79,30.08,29.98,0,0,0,1.11
2013-8-21,68,62,58,66,60,56,98,95,90,30.15,30.05,6,1,8,0.02
2013-8-22,74,64,57,67,61,56,98,91,78,30.09,29.98,4,1,8,0.00
2013-8-23,72,62,58,67,60,57,98,95,84,30.01,29.93,2,0,7,0.06
2013-8-24,66,59,54,61,56,53,100,90,73,30.17,30.00,11,4,15,0.00
2013-8-25,64,56,52,59,52,-100,99,91,79,30.24,30.16,10,5,15,0.00
2013-8-26,70,59,50,63,57,50,99,93,76,30.20,30.05,5,1,8,0.00
2013-8-27,70,62,58,67,61,57,98,95,88,30.05,29.98,3,1,7,0.00
2013-8-28,75,69,63,70,67,62,98,93,83,29.96,29.88,7,2,8,0.00
2013-8-29,76,68,63,71,65,61,98,90,74,29.95,29.84,5,2,11,0.01
2013-8-30,71,64,60,69,62,58,98,94,74,29.96,29.88,10,4,17,0.41
2013-8-31,74,66,61,71,64,59,98,93,85,29.89,29.83,5,1,8,0.11
2013-9-1,73,64,60,69,61,-100,99,94,86,29.85,29.75,7,1,10,0.04
2013-9-2,75,65,59,70,63,58,99,94,81,29.84,29.77,4,1,11,0.00
2013-9-3,68,61,55,66,60,54,99,96,89,29.90,29.74,4,1,10,0.11
2013-9-4,74,62,53,64,58,52,99,88,67,30.02,29.87,6,1,7,0.00
2013-9-5,73,60,54,61,57,53,99,89,56,30.04,29.97,3,0,5,0.00
2013-9-6,69,60,53,64,58,52,99,95,82,30.06,29.99,5,2,9,0.00
2013-9-7,73,62,53,64,59,53,99,91,70,30.01,29.90,3,1,8,0.00
2013-9-8,72,63,58,66,61,57,99,93,80,29.93,29.86,5,1,8,0.00
2013-9-9,71,63,58,67,62,57,99,95,86,30.08,29.93,10,3,13,0.00
2013-9-10,73,64,57,68,62,57,99,94,79,30.17,30.08,8,2,10,0.00
2013-9-11,76,65,59,69,63,58,99,94,77,30.16,30.03,5,1,7,1.61